TimeCST,TemperatureF,Dew PointF,Humidity,Sea Level PressureIn,VisibilityMPH,Wind Direction,Wind SpeedMPH,Gust SpeedMPH,PrecipitationIn,Events,Conditions,WindDirDegrees,DateUTC
12:53 AM,46.0,30.9,56,29.98,10.0,SSE,26.5,35.7,N/A,,Clear,160,2013-11-03 05:53:00
1:53 AM,46.0,30.0,54,29.99,10.0,SSE,23.0,28.8,N/A,,Clear,160,2013-11-03 06:53:00
1:53 AM,45.0,30.0,56,29.95,10.0,SSE,23.0,29.9,N/A,,Clear,160,2013-11-03 07:53:00
2:53 AM,46.0,30.0,54,29.93,10.0,SSE,24.2,33.4,N/A,,Clear,160,2013-11-03 08:53:00
3:53 AM,45.0,30.0,56,29.89,10.0,SSE,26.5,35.7,N/A,,Clear,160,2013-11-03 09:53:00
4:53 AM,46.0,30.0,54,29.86,10.0,South,28.8,36.8,N/A,,Clear,170,2013-11-03 10:53:00
5:53 AM,46.0,30.0,54,29.86,10.0,South,29.9,-,N/A,,Clear,170,2013-11-03 11:53:00
6:53 AM,48.0,30.0,50,29.84,10.0,South,35.7,44.9,N/A,,Clear,170,2013-11-03 12:53:00
7:53 AM,48.9,30.9,50,29.82,10.0,South,34.5,44.9,N/A,,Clear,170,2013-11-03 13:53:00
8:53 AM,51.1,30.9,46,29.83,10.0,South,31.1,39.1,N/A,,Clear,170,2013-11-03 14:53:00
9:53 AM,53.1,33.1,47,29.79,10.0,South,34.5,44.9,N/A,,Clear,180,2013-11-03 15:53:00
10:53 AM,57.0,33.1,40,29.73,10.0,South,42.6,52.9,N/A,,Clear,170,2013-11-03 16:53:00
11:53 AM,57.9,34.0,41,29.71,10.0,South,39.1,50.6,N/A,,Clear,180,2013-11-03 17:53:00
12:53 PM,61.0,34.0,36,29.68,10.0,South,40.3,52.9,N/A,,Clear,180,2013-11-03 18:53:00
1:53 PM,66.9,34.0,30,29.61,10.0,South,39.1,52.9,N/A,,Clear,170,2013-11-03 19:53:00
2:53 PM,68.0,32.0,26,29.63,10.0,South,41.4,55.2,N/A,,Clear,190,2013-11-03 20:53:00
3:53 PM,64.0,34.0,33,29.62,10.0,South,35.7,47.2,N/A,,Clear,170,2013-11-03 21:53:00
4:53 PM,62.1,34.0,35,29.62,10.0,South,34.5,43.7,N/A,,Clear,180,2013-11-03 22:53:00
5:53 PM,60.1,34.0,38,29.62,10.0,South,34.5,42.6,N/A,,Clear,170,2013-11-03 23:53:00
6:53 PM,57.9,36.0,44,29.63,10.0,South,28.8,39.1,N/A,,Clear,170,2013-11-04 00:53:00
7:53 PM,55.9,36.0,47,29.64,10.0,South,27.6,38.0,N/A,,Clear,170,2013-11-04 01:53:00
8:53 PM,54.0,36.0,51,29.65,10.0,South,29.9,39.1,N/A,,Clear,170,2013-11-04 02:53:00
9:53 PM,53.1,37.0,55,29.67,10.0,South,29.9,40.3,N/A,,Clear,170,2013-11-04 03:53:00
10:53 PM,52.0,37.0,57,29.66,10.0,South,31.1,41.4,N/A,,Clear,170,2013-11-04 04:53:00